Location: Misciano
(43.5000°N, 11.9500°E)
Time: 00:07:37
(UTC+00:00)

Meteor 1-14 Rocket - Pass Details

Date: 13 August 2020
Orbit: 834 x 919 km, 81.3° (Epoch: 23 September)

Event Time Altitude Azimuth Distance (km) Brightness Sun altitude
Exits shadow 20:23:19 27° 174° (S) 1,645 5.3 -19.9°
Maximum altitude 20:26:36 71° 97° (E) 955 4.2 -20.3°
Drops below altitude 10° 20:32:32 10° 14° (NNE) 2,614 7.2 -21.1°
Sets 20:35:02 0° 13° (NNE) 3,566 7.9 -21.4°
